Find ADDCUBE

NORAD ID: 64560 Int'l Des: NNA 2025-135 Owner: NARAST Country: KR operational
LEOCIRCULARRETROGRADESSO

Live Position

Loading 3D Globe...

About ADDCUBE

Description loading...

Upcoming Passes

Passes for default location (London). Set your location on the main map for personalized predictions.

Altitude History

Loading altitude history...

Two-Line Element Set

1 64560U 25135AJ 26104.23516692 .00002161 00000-0 20250-3 0 9996
2 64560 97.7645 219.4836 0001748 107.9788 252.1623 14.95073823 44353
Epoch: Apr 14, 2026 • Age: 13 hours

Current Status

Altitude 588.6 km
Velocity 7.57 km/s
Sub-Earth Point 46.09°N, 88.45°E
Launch Date Jun 23, 2025
Age 0.8 years
Type other

Technical Details

Classification Payload
Mass 10.00 kg
Dry Mass 10.00 kg
Total Mass 10.00 kg
Length 0.30 m
Diameter 0.20 m
Span 0.30 m
Shape Box
Manufacturer NARAST
Bus Type Cubesat 6U
Phase Status In Orbit
Owner/State NARAST/KR

Most Searched